TimeEDT,TemperatureF,Dew PointF,Humidity,Sea Level PressureIn,VisibilityMPH,Wind Direction,Wind SpeedMPH,Gust SpeedMPH,PrecipitationIn,Events,Conditions,WindDirDegrees,DateUTC
12:51 AM,69.8,68.0,94,29.87,9.0,SSW,4.6,-,0.04,Rain,Light Rain,210,2013-06-27 04:51:00
12:53 AM,69.1,68.0,96,29.85,10.0,SSW,5.8,-,0.04,Rain,Light Rain,210,2013-06-27 04:53:00
1:30 AM,69.8,68.0,94,29.85,9.0,Calm,Calm,-,0.01,Rain,Light Rain,0,2013-06-27 05:30:00
1:53 AM,69.1,68.0,96,29.83,6.0,Calm,Calm,-,0.03,Rain,Light Rain,0,2013-06-27 05:53:00
2:53 AM,69.1,66.9,93,29.81,8.0,South,4.6,-,0.02,Rain,Light Rain,170,2013-06-27 06:53:00
3:53 AM,68.0,66.9,96,29.77,10.0,Calm,Calm,-,0.01,Rain,Light Rain,0,2013-06-27 07:53:00
4:53 AM,68.0,66.0,93,29.77,8.0,Calm,Calm,-,0.00,Rain,Light Rain,0,2013-06-27 08:53:00
5:46 AM,68.0,66.2,94,29.80,3.0,Calm,Calm,-,0.09,Rain,Light Rain,0,2013-06-27 09:46:00
5:53 AM,68.0,66.9,96,29.78,4.0,Calm,Calm,-,0.10,Rain,Light Rain,0,2013-06-27 09:53:00
6:23 AM,68.0,66.2,94,29.81,3.0,Calm,Calm,-,0.04,Rain,Light Rain,0,2013-06-27 10:23:00
6:53 AM,68.0,66.9,96,29.79,4.0,West,5.8,-,0.05,,Overcast,260,2013-06-27 10:53:00
7:00 AM,68.0,66.2,94,29.81,7.0,West,4.6,-,N/A,,Overcast,260,2013-06-27 11:00:00
7:08 AM,68.0,66.2,94,29.81,8.0,West,4.6,-,N/A,,Overcast,280,2013-06-27 11:08:00
7:53 AM,68.0,66.9,96,29.79,10.0,West,3.5,-,N/A,,Mostly Cloudy,260,2013-06-27 11:53:00
8:43 AM,69.8,66.2,88,29.81,7.0,WSW,3.5,-,0.00,Rain,Light Rain,250,2013-06-27 12:43:00
8:53 AM,69.1,66.9,93,29.79,7.0,West,3.5,-,0.00,Rain,Light Rain,270,2013-06-27 12:53:00
9:41 AM,69.8,66.2,88,29.81,10.0,SW,4.6,-,0.00,,Overcast,220,2013-06-27 13:41:00
9:53 AM,69.1,66.9,93,29.79,10.0,SW,4.6,-,0.00,,Overcast,230,2013-06-27 13:53:00
10:53 AM,69.1,66.9,93,29.78,10.0,SW,4.6,-,N/A,,Overcast,230,2013-06-27 14:53:00
11:00 AM,69.8,66.2,88,29.80,10.0,SSW,4.6,-,N/A,,Overcast,210,2013-06-27 15:00:00
11:53 AM,69.1,66.9,93,29.79,3.0,SW,9.2,-,0.00,Rain,Light Rain,220,2013-06-27 15:53:00
11:58 AM,69.8,66.2,88,29.80,1.5,SW,8.1,-,0.00,Rain,Light Rain,220,2013-06-27 15:58:00
12:53 PM,69.1,68.0,96,29.78,1.5,SW,6.9,-,0.01,,Overcast,220,2013-06-27 16:53:00
1:53 PM,70.0,68.0,93,29.78,1.5,SW,5.8,-,N/A,,Overcast,220,2013-06-27 17:53:00
2:00 PM,69.8,68.0,94,29.79,6.0,WSW,5.8,-,N/A,,Overcast,240,2013-06-27 18:00:00
2:53 PM,70.0,68.0,93,29.78,5.0,West,6.9,-,N/A,,Overcast,260,2013-06-27 18:53:00
3:53 PM,73.0,69.1,87,29.76,9.0,WSW,6.9,-,N/A,,Overcast,240,2013-06-27 19:53:00
4:00 PM,73.4,69.8,88,29.78,9.0,Variable,4.6,-,N/A,,Overcast,0,2013-06-27 20:00:00
4:51 PM,75.2,69.8,83,29.76,9.0,Variable,5.8,-,N/A,,Overcast,0,2013-06-27 20:51:00
4:53 PM,77.0,70.0,79,29.74,9.0,Variable,5.8,-,N/A,,Overcast,0,2013-06-27 20:53:00
5:11 PM,75.2,69.8,83,29.75,9.0,Variable,5.8,-,N/A,,Scattered Clouds,0,2013-06-27 21:11:00
5:25 PM,77.0,69.8,78,29.74,9.0,SSW,6.9,-,N/A,,Mostly Cloudy,210,2013-06-27 21:25:00
5:46 PM,77.0,69.8,78,29.74,10.0,Variable,6.9,-,N/A,,Scattered Clouds,0,2013-06-27 21:46:00
5:53 PM,78.1,70.0,76,29.72,9.0,Variable,4.6,-,N/A,,Mostly Cloudy,0,2013-06-27 21:53:00
6:53 PM,77.0,70.0,79,29.71,10.0,SW,5.8,-,N/A,,Clear,230,2013-06-27 22:53:00
7:37 PM,77.0,69.8,78,29.74,10.0,SSW,5.8,-,N/A,,Mostly Cloudy,210,2013-06-27 23:37:00
7:43 PM,77.0,69.8,78,29.73,9.0,South,4.6,-,N/A,Thunderstorm,Mostly Cloudy,190,2013-06-27 23:43:00
7:50 PM,75.2,69.8,83,29.78,2.5,NNW,19.6,28.8,0.04,Thunderstorm,Unknown,340,2013-06-27 23:50:00
7:53 PM,72.0,66.9,84,29.74,1.0,North,11.5,28.8,0.15,Rain-Thunderstorm,Heavy Thunderstorms and Rain,360,2013-06-27 23:53:00
8:00 PM,69.8,66.2,88,29.74,0.5,West,10.4,21.9,0.13,Fog-Rain-Thunderstorm,Heavy Thunderstorms and Rain,260,2013-06-28 00:00:00
8:09 PM,69.8,64.4,83,29.74,2.5,West,8.1,-,0.16,Rain-Thunderstorm,Light Thunderstorms and Rain,270,2013-06-28 00:09:00
8:12 PM,69.8,66.2,88,29.74,4.0,West,9.2,-,0.16,Rain-Thunderstorm,Light Thunderstorms and Rain,270,2013-06-28 00:12:00
8:39 PM,69.8,66.2,88,29.75,1.8,NW,4.6,-,0.24,Rain-Thunderstorm,Heavy Rain,310,2013-06-28 00:39:00
8:43 PM,69.8,66.2,88,29.75,1.8,NNW,4.6,-,0.24,Rain-Thunderstorm,Rain,340,2013-06-28 00:43:00
8:53 PM,69.1,66.9,93,29.73,1.8,Variable,3.5,-,0.32,Rain-Thunderstorm,Heavy Thunderstorms and Rain,0,2013-06-28 00:53:00
9:00 PM,69.8,66.2,88,29.74,3.0,Calm,Calm,-,0.01,Rain-Thunderstorm,Light Thunderstorms and Rain,0,2013-06-28 01:00:00
9:50 PM,68.0,66.2,94,29.75,9.0,Calm,Calm,-,0.04,Rain,Light Rain,0,2013-06-28 01:50:00
9:53 PM,68.0,66.9,96,29.74,9.0,Calm,Calm,-,0.04,Rain,Light Rain,0,2013-06-28 01:53:00
10:17 PM,68.0,66.2,94,29.76,7.0,SSE,3.5,-,0.01,Rain-Thunderstorm,Light Rain,150,2013-06-28 02:17:00
10:39 PM,69.8,66.2,88,29.77,2.0,Variable,3.5,-,0.10,Rain,Rain,0,2013-06-28 02:39:00
10:53 PM,68.0,64.9,90,29.73,3.0,South,4.6,-,0.16,Rain,Light Rain,180,2013-06-28 02:53:00
11:48 PM,66.2,66.2,100,29.73,1.2,SSW,3.5,-,0.00,,Clear,200,2013-06-28 03:48:00
11:53 PM,66.9,66.0,97,29.71,1.0,Calm,Calm,-,0.00,,Clear,0,2013-06-28 03:53:00
11:59 PM,66.2,66.2,100,29.73,3.0,Calm,Calm,-,N/A,,Clear,0,2013-06-28 03:59:00